SL-16 DEB, 22398

Orbit data source: Space-Track

SL-16 DEB, 22398 is space debris in LEO originally from a launch on Fri, 25 Dec 1992 UTC launched from the Tyuratam Missile And Space Complex (TTMTR). Debris objects in space refer to the collection of defunct objects orbiting the Earth. Examples of debris include non-operational satellites, rocket bodies, and fragments generated from explosions, collisions, or faulty payload assembly.

Loading next visibility...
Identifier
22398, 1992-093CP
Orbit
LEO
Country
Flag of CISCIS
Related business
Manufacturer
Unknown
Mission
Spacecraft
Bus & Motor
Unknown
Mass
Unknown
Launch date (UTC)
1992-12-25 (33 years ago)
Launch vehicle
Unknown
Launch site
Tyuratam Missile And Space Complex (TTMTR)
Object type
Payload
Rocket body
Debris
Shape & HBR
Unknown shape, 0.1 m
Radar Cross Section
Small (<0.1 m²)

Expand to show TLE details & history
Last TLE update: 1 day ago

TLE from 1 day ago
0 SL-16 DEB
1 22398U 92093CP  25304.35270064  .00001353  00000-0  77305-3 0  9995
2 22398  70.9531  53.2091 0111785 314.7349  44.4709 14.08302965676853
Epoch: 2025-10-31T08:27Z
TLE epoch observation values (Epoch: 2025-10-31T08:27:53.335Z)
Latitude
-0.00006°
Longitude
-113.66151°
Altitude
810.236 km
Speed
7.478 km/s
True Right ascension
03h 32m 50s
True Declination
0° 00' 00"
Sunlit
Object was in full shadow at epoch
Visualization orbit readout
Latitude
Unknown
Longitude
Unknown
Altitude
Unknown
Speed
Unknown
Apparent Right ascension
Unknown
Apparent Declination
Unknown
Sunlit
N/A
Visualization observer readout
Local Sidereal Time
14:00:50
Azimuth
Unknown
Elevation
Unknown
Doppler factor
Unknown
Orbital elements
Apogee altitude
944.067 km
Perigee altitude
782.174 km
Semi-major axis
7,241.257 km
Eccentricity
0.01118
Inclination
70.9531°
RAAN
53.2091°
Arg. of periapsis
314.7349°
True anomaly
45.37727°
Mean anomaly
44.4709°
Eccentric anomaly
44.92318°
Mean motion
3.52227 °/min
Orbital period
102.21 mins
BSTAR
0.00077305
Loading maneuver chart data...
Computing Atmospheric mass density...
Loading historical data...
Loading historical data...
Loading historical data...
Loading historical data...
Loading historical data...
Loading historical data...
Loading historical data...

Documentation

Showing up to 5 results
|